SUBSCRIBTION

PACKAGES ONE WEEK TWO WEEKS ONE MONTH
Number of matches: 7 matches 14 matches 30 matches
Type: 1,X,2 or Goals 1,X,2 or Goals 1,X,2 or Goals
Odd: over 2.00 over 2.00 over 2.00
Bonus matches: included included included
Strong Sources: included included included
Price:   65 euros    95 euros  200 euros

*We will not responde of any type of message for free matches!

 


SUBSCRIBTION ARCHIVE​

DECEMBAR 2018

DATE MATCH PICK ODD RESULT  
01.12.2018                QPR – Hull 2 4.00 2:3
02.12.2018 Deportivo Moron – Temperley 2 4.05 1:3
03.12.2018 Al Jahra  – Al-Fahaheel 2 2.90 1:2
04.12.2018 Shmona – Yehuda 2 3.00 0:2
05.12.2018 Hapoel Hadera – H. Raanana X 3.25 0:0
06.12.2018 Comunicaciones – Sacachispas 1 2.50 1:0
07.12.2018 Barnsley U23 – Sheffield Utd U23 X 4.00 1:1
08.12.2018 Aberdeen – St Johnstone 2 4.80 0:2
09.12.2018 TuRU Dusseldorf – FSV Duisburg X 5.00 0:0
10.12.2018 Colchester U23 – Coventry U23 X 3.60 1:1
11.12.2018 Express FC – Kampala City 1 5.20 3:2
12.12.2018 Al Ain – Team Wellington X 4.70 3:3
13.12.2018 Black Forest – Prisons XI Gaborone 2 3.10 1:2
14.12.2018 Ittihad Kalba – Al Wasl 1 3.00 3:1
15.12.2018 Fulham – West Ham 2 2.60 0:2
16.12.2018 Nimes – Lille 2 3.00 2:3
17.12.2018 Atalanta – Lazio 2 3.60 1:0 lose
18.12.2018 St. Truiden – Gent 1 2.60 1:3 lose
19.12.2018          
20.12.2018          
21.12.2018          
22.12.2018          
23.12.2018          
24.12.2018          
25.12.2018          
26.12.2018          
27.12.2018          
28.12.2018          
29.12.2018          
30.12.2018          

 

NOVEMBER 2018

DATE MATCH PICK ODD RESULT  
01.11.2018             Al-Shabab –  Oman FC          1 2.55 2:1
02.11.2018 Tianjin Quanjian – Beijing Guoan 2 3.55 0:0 Image result for X png
03.11.2018 Wolfsburg – Dortmund 2 2.10 0:1
04.11.2018 Kustosija – Sibenik 2 2.80 0:1
05.11.2018 Crewe U23 – Leeds U23 1 3.20 3:1
06.11.2018 Dhamk – Najran X 3.50 1:1
07.11.2018 Suwalki – Olsztyn 1 2.60 3:2
08.11.2018 Vorskla Poltava – Qarabag 2 5.50 0:1
09.11.2018 GFC Ajaccio – Troyes 1 2.70 2:1
10.11.2018 Yeovil – Stockport 2 6.40 1:3
11.11.2018 SC Angrense – Louletano 2 3.30 0:1
12.11.2018 Dep. Merlo – Central Cordoba 1 2.70 2:1
13.11.2018 Charlton – Swansea U21 2 6.40 0:1
14.11.2018 Castrovillari – Bari X 3.75 1:1
15.11.2018 Croatia – Spain 2 2.00 3:2 lose
16.11.2018 Netherlands – France 1 3.20 2:0
17.11.2018 Italy – Portugal 2 3.65 0:0 lose
18.11.2018 Pistoiese – Piacenza 1 4.00 2:0
19.11.2018 France U21 – Spain U21 X 3.40 1:1
20.11.2018 Portugal U21  – Poland U21 2 6.60 1:3
21.11.2018 Irodotos – Apollon Pontou 2 6.00 0:1
22.11.2018 Al Feiha  – Al-Hazem X 3.55 1:1
23.11.2018 AS Roma U19 – Fiorentina U19 2 4.20 1:2
24.11.2018 Goias – Brasil de Pelotas 2 6.70 0:1
25.11.2018 Edinburgh City – Inverness X 6.00 1:1
26.11.2018 Petrojet  – Smouha 1 3.20 1:0
27.11.2018 Highlands – Amazulu 2 5.00 1:2
28.11.2018 Levico Terme –  Campodarsego 1 4.40 2:1
29.11.2018 St. Liege – Sevilla 1 5.20 1:0
30.11.2018 H. Nazareth – Hapoel Bnei Lod 2 5.60 1:2

 

OCTOBER 2018

DATE MATCH PICK ODD RESULT  
01.10.2018               Ingolstadt – Union Berlin              2 2.95 1:2
02.10.2018 Crewe – Swindon 1 2.90 1:0
03.10.2018 Sutjeska – Iskra 2 3.10 3:0 Image result for X png
04.10.2018 Al-Fateh – Al-Ittihad FC 1 2.80 2:0
05.10.2018 Kustosija – Osijek 2 2 3.50 0:1
06.10.2018 Brown Adrogue – Almagro X 3.00 1:1
07.10.2018 Zhodino – Neman 1 2.10 3:0
08.10.2018 Frej – Jonkopings X 3.50 1:1
09.10.2018 Al-Nahda  – Al Qaisoma 2 3.20 2:3
10.10.2018 Mioveni Arges –  Pitesti 2 3.00 0:1
11.10.2018 Iceland U21 – Northern Ireland U21 2 5.25 0:1
12.10.2018 Denmark U21 – Poland U21 X 3.60 1:1
13.10.2018 Bayern Hof – Vach X 5.00 1:1
14.10.2018 Chelsea W – Arsenal W 2 3.35 0:5
15.10.2018 Wales U19 – Poland U19 1 3.40 2:0
16.10.2018 Liberia – Congo 1 3.90 2:1
17.10.2018 Al Qaisoma – Al Najoom 2 3.45 1:5
18.10.2018 NO MATCH X X X X
19.10.2018 Saipa – Esteghlal F.C. 2 2.50 1:2
20.10.2018 Puskas Academy – Ferencvaros 1 6.30 1:0
21.10.2018 Slaven Belupo – Gorica 2 4.00 0:1
22.10.2018 Maccabi Haifa – Netanya 2 4.10 0:2
23.10.2018 Shrewsbury – Barnsley 1 3.30 3:1
24.10.2018 Bayer Leverkusen W – Duisburg W 1 4.40 4:1
25.10.2018 Duren – Hennef X 4.00 2:2
26.10.2018 Esteghlal F.C.  – Sepahan 2 3.65 1:2
27.10.2018 Gandzasar – Ararat-Armenia X 2.90 0:0
28.10.2018 Korinthos – Panthiraikos 1 2.55 1:1 Image result for X png
29.10.2018 Inter U19 – Juventus U19 X 3.60 3:3
30.10.2018 Dover Ath.  – Dag & Red 2 3.20 0:2
31.10.2018 Nimes –  St Etienne     POSTP  

 

SEPTEMBER 2018

DATE MATCH PICK ODD RESULT  
01.09.2018                 Netanya – Sakhnin              X 3.20 1:1
02.09.2018 Aves – Maritimo 2 3.20 0:1
03.09.2018 H. Ironi Rishon – Hapoel Katamon 2 3.40 1:4
04.09.2018 Gateshead – Harrogate 2 2.90 2:3
05.09.2018 Ratchaburi – Suphanburi 2 3.20 1:2
06.09.2018 Slovakia U21 – Italy U21 1 4.10 3:0
07.09.2018 Shahrdari Mahshahr –  Aluminium Arak 2 3.30 0:2
08.09.2018 Southend – Peterborough 2 3.10 2:3
09.09.2018 Frigg – Floya 1 2.15 2:1
10.09.2018 Vidar – Hodd 1 5.10 1:0
11.09.2018 Falkenbergs – Landskrona 2 6.35 1:2
12.09.2018 Hap. Ramat Gan – H. Akko 2 3.20 0:2
13.09.2018 Yeni Amasyaspor – Corum 1 3.00 1:0
14.09.2018 Bohemians – Cork City 1 5.05 4:2
15.09.2018 Valencia – Betis X 4.00 0:0
16.09.2018 Brondby – Sonderjyske 2 7.70 2:4
17.09.2018 Jong Nijmegen – Jong Heerenveen 1 2.40 5:1
18.09.2018 Galatasaray U19 – Lokomotiv Moscow U19 2 4.15 0:1
19.09.2018 Celik Zenica – Krupa 2 5.90 1:2
20.09.2018 Shabab Al-Ahli  – Dubai Al Sharjah 2 3.20 1:2
21.09.2018 A. Klagenfurt – Neustadt X 3.85 1:1
22.09.2018 Whitehill Welfare – Edinburgh University 1 4.30 1:0
23.09.2018 Shijiazhuang – Wuhan Zall 2 2.50 1:2
24.09.2018 Wadi Degla  – Enppi 2 4.60 1:2
25.09.2018 Exeter – West Ham U23 1 2.10 2:0
26.09.2018 Norrkoping – Malmo FF 1 3.00 3:1
27.09.2018 Triglav – Mura 1 3.50 3:0
28.09.2018 Al-Budaiya – Al-Najma 2 2.45 2:3
29.09.2018 Chelsea – Liverpool X 3.75 1:1
30.09.2018 Botafogo RJ – Sao Paulo 1 3.00 2:2 Image result for X png

 


AUGUST 2018

DATE MATCH PICK ODD RESULT  
01.08.2018                    Vegalta Sendai – Nagoya                     2 4.20 1:2     
02.08.2018  Al Ahly – El Ismaily X 3.40 1:1
03.08.2018 Sochaux – Valenciennes 2 3.90 0:1
04.08.2018 Deportes Temuco – Colo Colo 1 3.50 1:0
05.08.2018 Grecia – Guadalupe 1 2.40 2:0
06.08.2018 Vargarda IK – Vanersborgs FK 2 2.90 2:3
07.08.2018 Weston – Truro X 1:1 2.60
08.08.2018 Bautzen – Furstenwalde 2 2:0 3.25 Image result for X png
09.08.2018 Trencin (Svk) – Feyenoord (Ned) 1 4:0 4.50
10.08.2018 Tours – Sannois X 0:0 3.40
11.08.2018 Barnet – Eastleigh 2 1:2 5.00
12.08.2018 Notodden – Ull/Kisa 1 5:3 3.20
13.08.2018 Ventspils  – FK Liepaja 1 1:0 2.15
14.08.2018 Redditch – Barwel 2 2:4 2.54
15.87.2018 Beijing EG – Shenzhen X 1:1 3.50
16.08.2018 NO MATCH  
17.08.2018 NO MATCH  
18.08.2018 Dorking – Lewes 2 1:2 3.10
19.08.2018 Fleurier – Nidau 1 3:1 3.50
20.08.2018 Cardiff U23 – Barnsley U23 2 2:0 3.50 Image result for X png
21.08.2018 Charlton – Peterborough 2 0:1 3.50
22.08.2018 Yokohama M. – Vegalta Sendai 2 2:3 3.00
23.08.2018 Njardvik – IR Reykjavik X 1:1 3.60
24.08.2018 Sheffield Utd U23 – Bristol City U23 2 1:2 3.20
25.08.2018 NK Vitez – Metalleghe X 1:1 3.50
26.08.2018 Sarpsborg 08 – Kristiansund 2 1:2 4.35
27.08.2018 Hapoel Bnei Lod – Hapoel Petah Tikva 2 0:2 3.25
28.08.2018 Doncaster – Blackpool 2 1:2 4.00
29.08.2018 Acassuso – Talleres (R.E) 1 3:1 2.30
30.08.2018 Al Nasr – Al Suwaiq X 1:1 3.15
31.08.2018 Valenciennes – Clermont 2 0:4 3.00

JULY 2018

DATE MATCH PICK ODD RESULT  
01.07.2018 San Marcos de Arica – Cobreloa 2 3.30 0:1       
02.07.2018  Oleksandriya (Ukr) – Anorthosis (Cyp) X 3.40 1:1
03.07.2018 Sonderjyske (Den) – Midtjylland (Den) 1 3.20 2:1
04.07.2018 Sleipner – Aspudden Tellus 1 4.00 3:2
05.07.2018 IFK Lulea – Bodens X 3.45 0:0
06.07.2018 Eskilsminne – Grebbestads 2 6.50 1:2
07.07.2018 AC Oulu – Haka 2 3.80 0:1
08.07.2018 Start – Stabaek 1 2.50 2:1
09.07.2018 Hammarby – Ostersunds 2 3.60 1:2
10.07.2018 Torpedo Kutaisi (Geo) – Sheriff Tiraspol (Mda) 1 3.85 2:1
11.07.2018 Gran V. – Yaracuy FC 2 2.70 2:5
12.07.2018 Lahti (Fin) – Hafnarfjordur (Ice) 2 2.60 0:3
13.07.2018 Buchbach – Aschaffenburg X 3.30 2:2
14.07.2018 Belgium – England 1 2.75 0:2 Image result for X png
15.07.2018 France – Croatia 1 2.00 4:2
16.07.2018 Seoul E.  – Ansan Greeners 1 3.00 2:0
17.07.2018 TNS (Wal) – Shkendija (Mac) 1 3.50 4:0
18.07.2018 Kashiwa – FC Tokyo 2 3.90 0:1
19.07.2018 Dinamo Tbilisi (Geo) – Dun. Streda (Svk) 2 2.60 1:2
20.07.2018 Augsburg II – Buchbach 2 3.35 0:1
21.07.2018 Coritiba – Sao Bento X 3.10 2:2
22.07.2018 Zhejiang Yiteng – Shenzhen 1 3.40 1:0
23.07.2018 Independiente – Nacional Asuncion X 3.40 2:2
24.07.2018 Heimstetten – Garching 2 2.70 3:4
25.07.2018 Arbroath – Ross County 1 7.50 4:1
26.07.2018 Olafsvik – Kopavogur X 3.40 0:0
27.07.2018 Vitkovice – Sokolov 1 2.60 2:0
28.07.2018 Mikkelin Kissat – Viikingit X 4.00 2:2
29.07.2018 Naestved – Fredericia 1 2.80 3:2
30.07.2018 Zvezda St. Peterburg – Leningradets 1 5.50 3:1
31.07.2018 SpVgg Bayreuth – Memmingen 2 2.40 0:3

 


JUNE 2018

DATE MATCH PICK ODD RESULT  
01.06.2018 South Korea – Bosnia & Herzegovina 2 4.80 1:3       
02.06.2018 Odder – Naesby 2 3.30 1:2
03.06.2018 Extremadura UD – Mirandes 2 4.00 0:1
04.06.2018 Finland U19 – Montenegro U20 1 2.80 3:0
05.06.2018 PSMS Medan – Persib Bandung 2 3.30 0:3
06.06.2018 Utsiktens – Eskilsminne 2 3.10 0:1
07.06.2018 Progreso – CA Torqu 2 3.00 0:2
08.06.2018 Madagascar – Lesotho 2 4.30 0:1
09.06.2018 Iwata – G-Osaka 2 5.20 2:3
10.06.2018 Tenerife B – Ejea 1 5.50 1:2
11.06.2018 Tallinna Kalev U21 – Flora U21 X 10.00 0:0
12.06.2018 Santos Tartu – Elva X 4.40 1:1
13.06.2018 Ouakam – Douanes X 3.25 1:1
14.06.2018 Rumori Calcio – Raplamaa 1 3.70 3:0
15.06.2018 Bray – Waterford 1 6.50 0:0 Image result for X png
16.06.2018 Arameisk-Syrianska – Linkoping City 2 6.00 2:4
17.06.2018 Alta – Baerum Sportsklubb 2 4.75 0:2
18.06.2018 FC Gomel – Smolevichi STI 2 4.25 0:2
19.06.2018 Horsens (Den) – Kolding IF (Den) X 6.50 2:2
20.06.2018 TP-47 – VIFK 1 3.00 2:0
21.06.2018 Linkoping City – Karlslunds X 4.10 1:1
22.06.2018 Slask Wroclaw (Pol) – Zaglebie (Pol) 1 2.50 2:0
23.06.2018 Afturelding – Grotta X 5.00 2:2
24.06.2018 Sarpsborg 08 – Tromso 2 4.75 2:3
25.06.2018 Uruguay – Russia 1 2.60 3:0
26.06.2018 JJK Jyvaskyla – KPV Kokkola X 3.20 2:0 Image result for X png
27.06.2018 Kiffen – Espoo 2 2.30 0:1
28.06.2018 England – Belgium 2 3.40 0:1
29.06.2018 UC Dublin – Longford 2 4.20 1:5
30.06.2018 France –  Argentina 1 2.20 4:3

 

 

Leave a Reply

Your email address will not be published. Required fields are marked *

Histats

 

Contact

                            marbet1x2@gmail.com

 

  • Whatsapp: +389 77 706 976
Banner